{"data":{"norad_id":42840,"intl_designator":"2017-042R","name":"LEMUR-2-FURIAUS","alt_names":[],"object_type":"PAYLOAD","status":"ACTIVE","operator":null,"country":"US","launch_date":"2017-07-14","launch_site_code":"TYMSC","launch_vehicle":null,"mission":null,"orbit_class":"UNKNOWN","rcs_meters":null,"size_class":null,"mass_kg":null,"dimensions":null,"purposes":["earth_obs"],"wikipedia_slug":null,"has_3d_model":false,"image_url":null,"decayed_at":null,"tle_current":{"epoch":"2026-09-19T16:16:18.044832Z","epoch_age_seconds":82174,"freshness":"FRESH","line1":"1 42840U 17042R   26262.67798663  .00012839  00000+0  40344-3 0  9992","line2":"2 42840  97.3809  80.8401 0007911  86.3487 273.8660 15.33094687502679","mean_motion":15.33094687,"eccentricity":0.0007911,"inclination_deg":97.3809,"raan_deg":80.8401,"arg_perigee_deg":86.3487,"mean_anomaly_deg":273.866,"bstar":0.00040344,"rev_number":50267,"period_min":93.927662277522,"perigee_km":461.17079786914,"apogee_km":472.00051805857,"semimajor_km":6844.7226579639,"source":"CELESTRAK","updated_at":"2026-09-20T09:00:34.867937Z"}}}